Simultaneous Nadir Overpasses (SNOs) Predictions

Prediction of SNOs between METOP-A and NPP Satellite Orbit:

Table of predicted SNOs for the next 14.0 days since TLE Epoch: 6/9/2016
Index Date (METOP-A) Time (METOP-A) Lat,Lon (METOP-A) SZA (METOP-A ) Date (NPP) Time (NPP) Lat,Lon (NPP) SZA (NPP ) Distance(km) Time Diff (sec)
1 06/22/2016 02:59:54 73.59, 128.42 50.22 06/22/2016 02:58:47 73.56, 125.63 50.35 87.56 67
2 06/22/2016 03:50:38 -73.49, -64.50 129.88 06/22/2016 03:49:29 -73.46, -66.82 129.77 73.34 69
3 06/22/2016 04:41:22 73.27, 102.35 49.93 06/22/2016 04:40:11 73.27, 100.93 50.02 45.56 71
4 06/22/2016 05:32:06 -73.17, -90.56 130.16 06/22/2016 05:30:53 -73.17, -91.53 130.09 31.52 73
5 06/22/2016 06:22:49 73.00, 76.41 49.69 06/22/2016 06:21:35 72.97, 76.20 49.70 7.48 74
6 06/22/2016 07:13:32 -72.94,-116.37 130.36 06/22/2016 07:12:18 -72.92,-116.38 130.36 2.11 74
7 06/22/2016 08:04:12 72.92, 50.92 49.63 06/22/2016 08:03:04 72.93, 50.92 49.65 0.73 68
8 06/22/2016 08:54:54 -72.92,-141.76 130.38 06/22/2016 08:53:48 -72.93,-141.77 130.35 0.99 66
9 06/22/2016 09:45:34 72.90, 25.53 49.61 06/22/2016 09:44:33 72.89, 25.64 49.60 3.77 61
10 06/22/2016 10:36:16 -72.90,-167.14 130.39 06/22/2016 10:35:17 -72.89,-167.05 130.40 3.53 59
11 06/22/2016 11:26:56 72.88, 0.15 49.59 06/22/2016 11:26:03 72.89, 0.25 49.61 3.50 53
12 06/22/2016 12:17:38 -72.88, 167.47 130.41 06/22/2016 12:16:47 -72.89, 167.56 130.39 3.43 51
13 06/22/2016 13:08:17 72.91, -25.13 49.62 06/22/2016 13:07:33 72.90, -25.14 49.62 1.28 44
14 06/22/2016 13:58:59 -72.91, 142.19 130.39 06/22/2016 13:58:17 -72.90, 142.18 130.39 1.16 42
15 06/22/2016 14:49:39 72.89, -50.52 49.60 06/22/2016 14:49:03 72.90, -50.53 49.63 1.90 36
16 06/22/2016 15:40:21 -72.89, 116.81 130.40 06/22/2016 15:39:47 -72.90, 116.79 130.38 2.06 34
17 06/22/2016 16:31:01 72.87, -75.90 49.58 06/22/2016 16:30:32 72.86, -75.81 49.58 3.14 29
18 06/22/2016 17:21:43 -72.86, 91.42 130.42 06/22/2016 17:21:16 -72.86, 91.51 130.43 2.95 27
19 06/22/2016 18:12:22 72.89,-101.18 49.61 06/22/2016 18:12:02 72.87,-101.20 49.59 3.23 20
20 06/22/2016 19:03:04 -72.89, 66.14 130.40 06/22/2016 19:02:46 -72.87, 66.12 130.42 3.16 18
21 06/22/2016 19:53:44 72.87,-126.57 49.59 06/22/2016 19:53:32 72.87,-126.58 49.59 0.55 12
22 06/22/2016 20:44:26 -72.87, 40.76 130.41 06/22/2016 20:44:16 -72.87, 40.73 130.41 0.72 10
23 06/22/2016 21:35:06 72.85,-151.95 49.57 06/22/2016 21:35:02 72.88,-151.97 49.60 3.09 4
24 06/22/2016 22:25:48 -72.85, 15.37 130.43 06/22/2016 22:25:46 -72.88, 15.35 130.40 3.14 2
25 06/22/2016 23:16:28 72.83,-177.34 49.55 06/22/2016 23:16:31 72.83,-177.25 49.55 2.86 3
26 06/23/2016 00:07:10 -72.83, -10.01 130.45 06/23/2016 00:07:15 -72.83, -9.93 130.45 2.66 5
27 06/23/2016 00:57:49 72.86, 157.38 49.58 06/23/2016 00:58:01 72.84, 157.36 49.56
